Location: Sternwarte Hubelmatt
(47.0367°N, 8.3053°E)
Time: 00:36:09
(UTC+02:00)

First-Move - Visible Passes

Search period start: 25 April 2024 00:00
Search period end: 05 May 2024 00:00
Orbit: 540 x 605 km, 97.7° (Epoch: 23 April)

Date Brightness Start Highest point End Pass type
(mag) Time Alt. Az. Time Alt. Az. Time Alt. Az.
25 Apr ? 04:28:41 10° NNE 04:32:43 40° E 04:36:44 10° SSE visible
26 Apr ? 04:31:17 10° NNE 04:35:21 43° E 04:39:24 10° S visible
27 Apr ? 04:33:49 10° NNE 04:37:56 45° E 04:42:01 10° S visible
28 Apr ? 04:36:18 10° NNE 04:40:27 48° E 04:44:33 10° S visible
29 Apr ? 04:38:45 10° NNE 04:42:55 51° E 04:47:02 10° S visible
30 Apr ? 04:41:07 10° NNE 04:45:19 54° E 04:49:28 10° S visible
01 May ? 04:43:27 10° NNE 04:47:40 57° E 04:51:49 10° S visible
02 May ? 04:45:44 10° NNE 04:49:57 61° E 04:54:07 10° S visible
03 May ? 04:47:57 10° NNE 04:52:12 64° E 04:56:22 10° S visible
04 May ? 04:50:08 10° NNE 04:54:22 68° E 04:58:33 10° S visible
